User: anonymous   Login
Location: The D'Auria's Ocala Star Observatory
(29.0276°N, 82.1742°W)
Time: 04:30:40
(UTC-04:00)
Language:

Abrixas rocket - Orbit

View from above orbital plane
View from above orbital plane
View from above satellite
View from above satellite

Ground track
Ground track

The orbit data is extracted from the following two-line orbital elements,

1 25723U 99022C   14298.80337353  .00019196  00000-0  59373-3 0  7856
2 25723 048.4222 208.0095 0016722 119.1607 282.2682 15.33282090857182
Epoch (UTC): 25 October 2014 19:16:51
Eccentricity: 0.0016722
inclination: 48.4222°
perigee height: 454 km
apogee height: 477 km
right ascension of ascending node: 208.0095°
argument of perigee: 119.1607°
revolutions per day: 15.33282090
mean anomaly at epoch: 282.2682°
orbit number at epoch: 85718

The dashed part of the orbit path shows where the satellite is in the earth's shadow,  

DLR